EW9240 Weather Reports


time (UTC)temp
C
wind
direction
speed
KPH
gust
KPH
rain 1hr
cm
rain 24hr
cm
rain mn
cm
humidity
%
barometer
mb
20260506001610 17 288 0.0 1.6 0.00 0.00 0.00 72 1013.4
20260506000041 16 264 0.0 4.8 0.00 0.00 0.00 74 1013.5
20260505234528 16 274 0.0 8.0 0.00 0.00 0.00 73 1013.7
20260505233008 16 278 1.6 4.8 0.00 0.00 0.00 74 1013.7
20260505231530 16 257 0.0 6.4 0.00 0.00 0.00 74 1013.8
20260505230030 16 312 3.2 8.0 0.00 0.00 0.00 73 1013.8
20260505224700 16 269 1.6 8.0 0.00 0.00 0.00 74 1013.9
20260505223058 16 274 0.0 6.4 0.00 0.00 0.00 73 1014.0
20260505221545 17 275 0.0 1.6 0.00 0.00 0.00 73 1014.0
20260505220052 17 155 0.0 1.6 0.00 0.00 0.00 73 1014.1
20260505214538 16 297 0.0 4.8 0.00 0.00 0.00 74 1014.1
20260505213015 16 304 0.0 3.2 0.00 0.00 0.00 73 1014.2
20260505211554 16 279 0.0 4.8 0.00 0.00 0.00 75 1014.2
20260505210040 16 302 0.0 4.8 0.00 0.00 0.00 73 1014.3
20260505204501 16 285 0.0 3.2 0.00 0.00 0.00 73 1014.5
20260505203031 16 282 0.0 4.8 0.00 0.00 0.00 74 1014.5
20260505201513 16 126 0.0 4.8 0.00 0.00 0.00 76 1014.6
20260505200053 15 123 0.0 3.2 0.00 0.00 0.00 77 1014.7
20260505194538 15 290 0.0 3.2 0.00 0.00 0.00 78 1014.8
20260505193017 15 118 0.0 1.6 0.00 0.00 0.00 78 1014.9
20260505191501 15 290 0.0 4.8 0.00 0.00 0.00 79 1014.8
20260505190043 15 221 0.0 3.2 0.00 0.00 0.00 79 1014.8
20260505184514 14 147 0.0 1.6 0.00 0.00 0.00 80 1014.8
20260505183000 14 214 0.0 1.6 0.00 0.00 0.00 80 1014.8
20260505181546 14 117 0.0 4.8 0.00 0.00 0.00 80 1014.8
20260505180044 14 214 0.0 1.6 0.00 0.00 0.00 80 1014.7
20260505174512 13 208 0.0 4.8 0.00 0.00 0.00 81 1014.7
20260505173055 13 89 0.0 1.6 0.00 0.00 0.00 80 1014.6
20260505171542 13 206 0.0 1.6 0.00 0.00 0.00 81 1014.6
20260505170023 13 205 0.0 3.2 0.00 0.00 0.00 81 1014.5
20260505164508 13 216 0.0 3.2 0.00 0.00 0.00 81 1014.4
20260505163046 13 207 0.0 4.8 0.00 0.00 0.00 82 1014.3
20260505161519 13 219 0.0 1.6 0.00 0.00 0.00 83 1014.3
20260505153007 12 214 0.0 1.6 0.00 0.00 0.00 85 1014.2
20260505151550 12 215 0.0 1.6 0.00 0.00 0.00 85 1014.2
20260505124541 12 188 0.0 3.2 0.00 0.00 0.00 84 1013.1
20260505123025 12 199 0.0 0.0 0.00 0.00 0.00 84 1013.0
20260505121605 12 215 0.0 1.6 0.00 0.00 0.00 84 1013.1
20260505120045 12 213 0.0 1.6 0.00 0.00 0.00 84 1013.0
20260505114531 12 216 0.0 3.2 0.00 0.00 0.00 84 1013.0
20260505113003 12 225 0.0 0.0 0.00 0.00 0.00 84 1012.9
20260505111548 12 195 0.0 0.0 0.00 0.00 0.00 84 1012.9
20260505101557 12 210 0.0 3.2 0.00 0.00 0.00 83 1012.5
20260505100047 12 179 0.0 1.6 0.00 0.00 0.00 84 1012.5
20260505094501 12 210 1.6 4.8 0.00 0.00 0.00 83 1012.3
20260505093024 12 195 0.0 3.2 0.00 0.00 0.00 83 1012.3
20260505091507 12 193 0.0 1.6 0.00 0.00 0.00 82 1012.2
20260505090050 13 219 0.0 3.2 0.00 0.00 0.00 82 1012.1
20260505084528 13 219 0.0 3.2 0.00 0.00 0.00 81 1011.9
20260505083015 13 184 0.0 1.6 0.00 0.00 0.00 81 1011.9
20260505081604 13 215 0.0 4.8 0.00 0.00 0.00 80 1011.7
20260505080046 13 214 0.0 3.2 0.00 0.00 0.00 80 1011.7
20260505074545 13 213 0.0 4.8 0.00 0.00 0.00 80 1011.7
20260505073034 13 193 0.0 6.4 0.00 0.00 0.00 79 1011.4
20260505071508 14 208 1.6 8.0 0.00 0.00 0.00 78 1011.1
20260505070058 15 232 3.2 8.0 0.00 0.00 0.00 78 1011.0
20260505064519 15 182 1.6 9.7 0.00 0.00 0.00 76 1010.7
20260505063117 15 224 0.0 4.8 0.00 0.00 0.00 77 1010.6
20260505061551 16 199 0.0 11.3 0.00 0.00 0.00 75 1010.4
20260505060037 16 208 1.6 6.4 0.00 0.00 0.00 74 1010.3
20260505054511 17 214 0.0 3.2 0.00 0.00 0.00 73 1010.1
20260505053101 18 200 0.0 3.2 0.00 0.00 0.00 72 1010.1
20260505051542 18 282 0.0 4.8 0.00 0.00 0.00 71 1010.0
20260505041521 19 226 0.0 1.6 0.00 0.00 0.00 74 1009.1
20260505034545 19 158 0.0 0.0 0.00 0.00 0.00 73 1008.6
20260505033024 20 143 0.0 4.8 0.00 0.00 0.00 72 1008.4
20260505031508 20 213 0.0 3.2 0.00 0.00 0.00 72 1008.3
20260505030033 20 156 0.0 4.8 0.00 0.00 0.00 71 1008.2
20260505024508 21 232 0.0 6.4 0.00 0.00 0.00 69 1008.0
20260505023053 21 167 3.2 0.0 0.00 0.00 0.00 69 1008.0
20260505021541 21 214 0.0 8.0 0.00 0.00 0.00 68 1007.9
20260505020019 21 211 3.2 9.7 0.00 0.00 0.00 67 1008.0
20260505014555 21 218 4.8 11.3 0.00 0.00 0.00 67 1008.0
20260505013036 21 222 0.0 9.7 0.00 0.00 0.00 67 1008.1
20260505011511 21 213 3.2 6.4 0.00 0.00 0.00 66 1008.3
20260505010118 21 195 3.2 8.0 0.00 0.00 0.00 65 1008.2
20260505004537 21 197 1.6 11.3 0.00 0.00 0.00 65 1008.3
20260505003022 21 220 0.0 12.9 0.00 0.00 0.00 65 1008.4